Location: Newark
(42.8481°N, 0.4872°E)
Time: 08:54:22
(UTC+00:00)

Transit 2A Rocket - Pass Details

Date: 28 October 2020
Orbit: 588 x 914 km, 66.7° (Epoch: 29 November)

Event Time Altitude Azimuth Distance (km) Brightness Sun altitude
Rises 09:02:03 0° 195° (SSW) 3,525 8.9 23.0°
Reaches altitude 10° 09:04:37 10° 191° (S) 2,594 8.4 23.3°
Maximum altitude 09:10:32 55° 115° (ESE) 1,080 6.9 24.0°
Drops below altitude 10° 09:16:20 10° 39° (NE) 2,542 7.7 24.7°
Sets 09:18:49 0° 35° (NE) 3,450 8.2 25.0°
